Vogel Cemetery, Texas, United States
Lat: 29.74N, Lon: 98.4W
Wx Zone: TXZ205
Local Info
Past Weather Observations for Today

NOTE: This archive is for the closest National Weather Service station to Vogel Cemetery. Information may differ from the station used for current weather conditions.

Click here for Long-term Archive

Time Weather Temperature Dewpoint Humidity Pressure Winds Precip Visibility
20:51
Mostly Cloudy
77°F / 25°C 70°F / 21°C 79% 30.04 in
(1017 mb)
SSE 9.2 mph
(SSE 15 kph)
- 10SM
19:51
Mostly Cloudy
79°F / 26°C 70°F / 21°C 74% 30.04 in
(1017 mb)
S 9.2 mph
(S 15 kph)
- 10SM
18:51
Mostly Cloudy
81°F / 27°C 70°F / 21°C 70% 30.01 in
(1016 mb)
SSE 11.5 mph
(SSE 19 kph)
- 10SM
17:51
Mostly Cloudy
81°F / 27°C 70°F / 21°C 70% 30.01 in
(1016 mb)
SSE 12.7 mph
(SSE 20 kph)
- 10SM
16:51
Mostly Cloudy
82°F / 28°C 70°F / 21°C 66% 30.04 in
(1017 mb)
SSE 13.8 mph
(SSE 22 kph)
- 10SM
15:51
Mostly Cloudy
82°F / 28°C 70°F / 21°C 66% 30.04 in
(1017 mb)
S 9.2 mph
(S 15 kph)
- 10SM
14:51
Mostly Cloudy
81°F / 27°C 72°F / 22°C 74% 30.06 in
(1018 mb)
S 12.7 mph
(S 20 kph)
- 10SM
13:51
Overcast
75°F / 24°C 72°F / 22°C 89% 30.06 in
(1018 mb)
S 18.4 mph
(S 30 kph)
0.07 in
(1.78 mm)
10SM
13:19
Overcast
Rain
75°F / 24°C 72°F / 22°C 89% 30.09 in
(1019 mb)
S 20.7 mph
(S 33 kph)
0.06 in
(1.52 mm)
8SM
13:03
Overcast
Heavy Rain
77°F / 25°C 70°F / 21°C 79% 30.09 in
(1019 mb)
S 27.6 mph
(S 44 kph)
0.00 in
(0.00 mm)
3SM
12:55
Overcast
Squall
82°F / 28°C 70°F / 21°C 66% 30.09 in
(1019 mb)
S 35.7 mph
(S 57 kph)
- 10SM
12:51
Mostly Cloudy
88°F / 31°C 72°F / 22°C 59% 30.06 in
(1018 mb)
SSE 19.6 mph
(SSE 32 kph)
- 10SM
11:51
Mostly Cloudy
86°F / 30°C 72°F / 22°C 62% 30.06 in
(1018 mb)
S 11.5 mph
(S 19 kph)
- 10SM
10:51
Mostly Cloudy
86°F / 30°C 73°F / 23°C 66% 30.06 in
(1018 mb)
SSE 11.5 mph
(SSE 19 kph)
- 10SM
09:51
Mostly Cloudy
82°F / 28°C 73°F / 23°C 74% 30.09 in
(1019 mb)
S 10.4 mph
(S 17 kph)
- 10SM
09:07
Mostly Cloudy
81°F / 27°C 72°F / 22°C 74% 30.09 in
(1019 mb)
S 8.1 mph
(S 13 kph)
- 10SM
08:51
Mostly Cloudy
81°F / 27°C 73°F / 23°C 79% 30.09 in
(1019 mb)
SSE 8.1 mph
(SSE 13 kph)
- 10SM
08:14
Mostly Cloudy
79°F / 26°C 72°F / 22°C 79% 30.09 in
(1019 mb)
S 6.9 mph
(S 11 kph)
- 10SM
08:12
Mostly Cloudy
79°F / 26°C 72°F / 22°C 79% 30.09 in
(1019 mb)
S 8.1 mph
(S 13 kph)
- 10SM
07:51
Clear
79°F / 26°C 72°F / 22°C 79% 30.06 in
(1018 mb)
SSE 6.9 mph
(SSE 11 kph)
- 10SM
06:51
Partly Cloudy
77°F / 25°C 72°F / 22°C 83% 30.06 in
(1018 mb)
W 3.5 mph
(W 6 kph)
- 10SM
05:51
Partly Cloudy
73°F / 23°C 70°F / 21°C 89% 30.06 in
(1018 mb)
NW 3.5 mph
(NW 6 kph)
- 10SM
04:51
Partly Cloudy
73°F / 23°C 70°F / 21°C 89% 30.04 in
(1017 mb)
SSE 3.5 mph
(SSE 6 kph)
- 10SM
03:51
Partly Cloudy
73°F / 23°C 70°F / 21°C 89% 30.04 in
(1017 mb)
S 5.8 mph
(S 9 kph)
- 10SM
02:51
Partly Cloudy
73°F / 23°C 70°F / 21°C 89% 30.06 in
(1018 mb)
S 3.5 mph
(S 6 kph)
- 10SM
01:51
Partly Cloudy
73°F / 23°C 70°F / 21°C 89% 30.06 in
(1018 mb)
S 5.8 mph
(S 9 kph)
- 10SM
00:51
Clear
73°F / 23°C 70°F / 21°C 89% 30.06 in
(1018 mb)
SSE 5.8 mph
(SSE 9 kph)
- 10SM
Time Weather Temperature Dewpoint Humidity Pressure Winds Precip Visibility


Weather for websites

WeatherForYou.com, LLC is not responsible for any damages or problems caused by this service. Current weather conditions are obtained from the closest station including government and personal stations which may have varying degrees of accuracy. Weather forecasts are derived from the NOAA NDFD. Like all things, this site belongs to Jesus Christ... He just trusts us to maintain it. If you have any questions or comments email webmaster@weatherforyou.com

Copyright © 2015, WeatherForYou.com LLC. All rights reserved.